Dewpoint
49 50 49 49 48 48 48 48 49 49 49 47 47 47 48 49 49 49 49 48 48 48 47 47 48 47 48 47 48 46 48 48 48 47 47 48 47 46 47 47 47 47
49 49 50 49 49 49 49 48 48 50 49 48 48 47 47 48 48 48 48 48 49 47 47 47 48 48 47 47 46 46 46 45 44 50 47 45 46 45 45 46 46 47
48 49 49 48 48 48 49 49 48 49 49 49 47 47 48 48 48 46 47 47 46 47 46 46 46 47 47 46 46 45 44 44 44 45 48 45 46 45 45 46 46 46
48 49 48 49 48 48 49 49 48 48 47 48 47 48 49 49 48 47 47 51 46 46 46 46 46 46 46 45 45 45 44 44 45 45 45 45 46 46 45 45 47 45
49 49 49 49 49 49 49 49 49 48 48 48 47 48 49 48 46 47 47 46 45 45 45 45 45 45 46 45 45 43 44 45 44 44 44 44 44 45 45 45 45 44
49 49 50 49 49 49 49 49 49 49 48 47 48 49 48 47 46 46 45 44 45 45 45 44 44 44 44 43 43 42 42 43 43 43 43 42 43 43 45 45 44 43
49 49 50 50 49 49 49 49 49 49 48 48 48 48 47 46 46 45 45 45 44 46 44 43 43 43 42 42 41 42 42 42 42 42 42 42 43 43 43 43 44 43
49 49 49 50 49 49 49 49 49 48 48 48 48 48 47 46 46 45 45 44 43 43 43 43 43 42 42 41 42 41 41 42 43 42 42 42 42 42 43 43 43 42
48 49 49 49 49 49 48 49 49 48 48 47 47 47 46 46 46 45 45 44 43 43 42 42 42 41 41 41 41 40 40 40 42 41 42 42 42 42 42 42 42 43
48 49 49 49 49 49 48 48 48 48 49 47 47 47 46 46 46 45 44 43 43 43 42 41 41 41 40 41 41 40 40 41 41 41 41 42 42 42 42 42 42 42
49 49 49 49 48 48 48 48 48 48 48 47 46 46 46 46 45 43 43 43 43 42 41 40 40 40 40 40 40 41 41 41 41 41 41 42 43 43 45 44 44 43
49 49 49 48 48 48 48 48 48 47 47 47 46 46 45 45 45 44 44 42 41 41 41 40 40 40 40 40 40 41 41 41 41 41 42 42 42 43 43 43 43 42
50 49 49 48 48 48 47 47 47 47 47 46 46 45 45 43 43 43 43 41 41 41 40 40 40 40 40 39 40 40 40 40 40 40 41 41 41 42 42 42 42 42
51 50 49 48 48 47 47 47 47 47 47 46 46 44 44 43 42 41 42 40 41 40 40 40 39 39 39 39 39 39 40 40 39 40 41 40 41 41 41 41 41 41
50 48 48 48 48 47 47 47 46 46 46 46 45 44 44 42 41 40 40 39 39 40 40 41 39 39 39 39 38 38 38 38 39 39 39 39 39 39 39 39 39 39
47 46 47 47 48 47 47 46 46 46 45 45 44 43 42 41 40 39 39 39 39 38 38 39 38 39 43 42 41 40 39 39 39 39 39 38 38 38 38 38 38 38
48 48 47 47 46 46 45 46 46 45 45 43 42 41 41 41 39 39 38 38 38 37 36 37 38 39 39 38 38 39 38 38 38 38 38 38 38 37 37 37 37 37
49 48 48 47 47 46 47 46 46 45 44 42 41 39 39 39 38 38 38 37 37 36 36 37 37 40 38 38 38 37 38 39 37 37 38 37 37 37 37 37 37 37
48 48 48 48 47 47 46 46 45 44 42 41 40 40 39 38 38 37 37 37 36 35 35 37 37 39 37 38 37 37 37 37 36 36 36 36 36 36 36 36 36 37
48 47 47 47 47 47 46 45 44 43 42 41 40 39 37 37 37 36 36 36 35 35 35 35 35 38 37 37 37 36 36 36 35 35 35 35 35 35 35 35 35 35
48 47 46 46 46 45 45 45 44 41 40 40 39 37 37 36 36 35 35 36 36 34 33 33 35 38 37 37 36 36 35 35 35 35 35 34 34 34 34 34 34 35
48 46 45 45 45 45 45 43 41 40 39 38 37 36 36 36 34 35 35 34 34 33 33 33 34 36 36 36 36 35 35 35 34 34 34 34 33 34 34 34 34 34
47 46 45 45 45 44 42 40 38 37 38 37 36 35 35 35 35 34 35 34 33 33 32 32 32 35 35 35 35 35 35 34 34 33 33 33 33 33 33 33 33 33
46 45 44 45 44 42 40 39 39 37 37 37 35 35 35 35 35 35 34 34 33 32 33 31 31 34 36 36 35 35 35 33 33 33 33 33 33 33 33 33 33 36
46 45 44 43 42 40 39 38 37 36 37 36 35 35 35 35 37 34 34 33 33 33 38 36 33 34 36 35 34 34 35 33 33 33 32 32 32 32 32 33 32 34
45 44 43 41 40 39 38 38 37 36 35 34 35 34 34 34 36 34 33 33 33 33 34 33 32 32 34 34 34 34 34 34 33 32 32 32 32 32 32 32 32 32